FW1465 Weather Reports


time (UTC)temp
F
wind
direction
speed
knots
gust
knots
rain 1hr
in
rain 24hr
in
rain mn
in
humidity
%
barometer
mb
20260506015018 73 270 0.9 2.6 0.00 0.00 0.00 52 1004.5
20260506013917 73 0.0 0.9 0.00 0.00 0.00 51 1004.3
20260506012917 73 0.0 0.9 0.00 0.00 0.00 51 1004.3
20260506012018 73 247 0.9 3.5 0.00 0.00 0.00 50 1004.4
20260506010917 74 0.0 1.7 0.00 0.00 0.00 51 1004.0
20260506005918 74 0.0 1.7 0.00 0.00 0.00 51 1003.8
20260506005038 75 315 0.9 2.6 0.00 0.00 0.00 50 1003.4
20260506002917 76 0.0 1.7 0.00 0.00 0.00 50 1003.6
20260506002056 77 0.0 1.7 0.00 0.00 0.00 49 1003.6
20260506001038 78 0.0 1.7 0.00 0.00 0.00 48 1003.6
20260505235938 79 0.0 2.6 0.00 0.00 0.00 47 1002.9
20260505234937 80 315 0.9 4.3 0.00 0.00 0.00 46 1002.6
20260505233917 81 0.0 1.7 0.00 0.00 0.00 45 1002.8
20260505232917 84 292 2.6 7.0 0.00 0.00 0.00 42 1002.8
20260505231917 85 315 0.9 2.6 0.00 0.00 0.00 39 1002.4
20260505230917 86 0.0 2.6 0.00 0.00 0.00 37 1002.3
20260505225917 88 315 1.7 3.5 0.00 0.00 0.00 34 1002.0
20260505224917 91 315 1.7 5.2 0.00 0.00 0.00 34 1001.9
20260505224018 90 0.0 1.7 0.00 0.00 0.00 36 1001.8
20260505222958 90 0.0 0.0 0.00 0.00 0.00 38 1001.6
20260505221937 90 315 0.9 1.7 0.00 0.00 0.00 38 1001.5
20260505220917 90 0.0 0.9 0.00 0.00 0.00 36 1001.6
20260505215917 91 90 0.9 5.2 0.00 0.00 0.00 36 1001.6
20260505214917 91 0.0 0.0 0.00 0.00 0.00 38 1001.8
20260505213937 91 0.0 0.9 0.00 0.00 0.00 37 1001.7
20260505212917 90 292 1.7 3.5 0.00 0.00 0.00 37 1001.9
20260505211917 91 315 2.6 4.3 0.00 0.00 0.00 38 1002.1
20260505210938 92 0.0 0.0 0.00 0.00 0.00 38 1002.1
20260505205917 90 0.0 0.0 0.00 0.00 0.00 41 1002.1
20260505204917 90 0.0 0.0 0.00 0.00 0.00 41 1002.4
20260505203937 91 0.0 4.3 0.00 0.00 0.00 40 1002.5
20260505202937 90 0.0 0.0 0.00 0.00 0.00 41 1002.7
20260505201918 89 0.0 3.5 0.00 0.00 0.00 42 1002.6
20260505200917 89 0.0 0.0 0.00 0.00 0.00 43 1002.7
20260505195937 88 0.0 0.0 0.00 0.00 0.00 43 1002.8
20260505194937 88 45 1.7 5.2 0.00 0.00 0.00 43 1002.9
20260505193937 88 0.0 0.0 0.00 0.00 0.00 45 1002.9
20260505192918 87 292 2.6 7.0 0.00 0.00 0.00 45 1002.8
20260505191915 86 247 0.9 4.3 0.00 0.00 0.00 47 1002.9
20260505191017 85 67 2.6 6.1 0.00 0.00 0.00 46 1002.9
20260505190018 85 90 0.9 3.5 0.00 0.00 0.00 47 1003.0
20260505184937 84 90 0.9 7.0 0.00 0.00 0.00 48 1003.1
20260505183917 84 0.0 0.0 0.00 0.00 0.00 48 1003.1
20260505182917 84 270 1.7 4.3 0.00 0.00 0.00 47 1003.1
20260505181917 84 90 0.9 7.8 0.00 0.00 0.00 48 1003.1
20260505180937 84 292 2.6 5.2 0.00 0.00 0.00 48 1003.2
20260505175937 83 0.0 0.9 0.00 0.00 0.00 50 1003.2
20260505174937 83 90 2.6 6.1 0.00 0.00 0.00 49 1003.1
20260505173917 83 292 0.9 2.6 0.00 0.00 0.00 51 1003.2
20260505173017 82 0.0 0.0 0.00 0.00 0.00 51 1003.2
20260505171917 81 247 1.7 5.2 0.00 0.00 0.00 51 1003.4
20260505170917 81 67 0.9 3.5 0.00 0.00 0.00 51 1003.5
20260505170017 80 0.0 0.0 0.00 0.00 0.00 51 1003.3
20260505164958 80 292 0.9 7.0 0.00 0.00 0.00 51 1003.4
20260505164058 80 0.0 1.7 0.00 0.00 0.00 51 1003.3
20260505162917 80 0.0 0.9 0.00 0.00 0.00 51 1003.2
20260505161917 80 90 1.7 9.6 0.00 0.00 0.00 51 1003.2
20260505160937 79 247 4.3 13.0 0.00 0.00 0.00 51 1003.2
20260505152937 78 90 1.7 7.0 0.00 0.00 0.00 51 1002.9
20260505151917 77 202 0.9 4.3 0.00 0.00 0.00 52 1003.1
20260505150937 76 315 1.7 4.3 0.00 0.00 0.00 53 1003.2
20260505124917 72 247 0.9 3.5 0.00 0.00 0.00 57 1002.7
20260505123917 71 67 0.9 3.5 0.00 0.00 0.00 57 1002.7
20260505122957 71 135 0.9 5.2 0.00 0.00 0.00 58 1002.3
20260505121917 71 247 0.9 4.3 0.00 0.00 0.00 58 1002.3
20260505120937 71 247 0.9 2.6 0.00 0.00 0.00 58 1002.3
20260505120037 71 112 1.7 3.5 0.00 0.00 0.00 58 1002.2
20260505114957 71 90 1.7 8.7 0.00 0.00 0.00 57 1002.1
20260505113917 71 0 1.7 6.1 0.00 0.00 0.00 57 1002.0
20260505113038 71 292 2.6 7.0 0.00 0.00 0.00 57 1002.1
20260505111937 71 247 1.7 5.2 0.00 0.00 0.00 57 1002.1
20260505111017 71 45 1.7 3.5 0.00 0.00 0.00 57 1002.1
20260505101917 71 0.0 0.0 0.00 0.00 0.00 57 1002.2
20260505100917 71 67 1.7 5.2 0.00 0.00 0.00 57 1002.2
20260505095917 71 270 0.9 2.6 0.00 0.00 0.00 57 1002.1
20260505094937 71 90 1.7 4.3 0.00 0.00 0.00 58 1002.4
20260505093937 71 0.0 0.9 0.00 0.00 0.00 58 1002.3
20260505092937 71 45 0.9 1.7 0.00 0.00 0.00 58 1002.4
20260505091937 71 0.0 0.0 0.00 0.00 0.00 58 1002.4
20260505090957 71 45 0.9 5.2 0.00 0.00 0.00 58 1002.6
20260505085957 71 0.0 0.9 0.00 0.00 0.00 58 1002.6
20260505085058 71 112 0.9 2.6 0.00 0.00 0.00 58 1002.5
20260505083937 71 0.0 0.9 0.00 0.00 0.00 59 1002.6
20260505082917 71 0.0 1.7 0.00 0.00 0.00 59 1002.7
20260505081957 71 90 0.9 5.2 0.00 0.00 0.00 59 1002.6
20260505080917 71 0.0 1.7 0.00 0.00 0.00 59 1002.7
20260505075957 71 45 0.9 2.6 0.00 0.00 0.00 59 1002.9
20260505074937 71 112 0.9 4.3 0.00 0.00 0.00 59 1002.9
20260505073937 72 112 0.9 5.2 0.00 0.00 0.00 59 1003.1
20260505072957 72 135 0.9 2.6 0.00 0.00 0.00 59 1003.3
20260505071917 72 67 1.7 4.3 0.00 0.00 0.00 59 1003.5
20260505065957 72 292 1.7 3.5 0.00 0.00 0.00 58 1003.6
20260505064937 72 315 0.9 1.7 0.00 0.00 0.00 58 1003.8
20260505063917 72 0.0 0.9 0.00 0.00 0.00 58 1003.9
20260505062937 72 112 0.9 3.5 0.00 0.00 0.00 58 1004.0
20260505061937 72 0.0 1.7 0.00 0.00 0.00 58 1004.0
20260505060937 72 0.0 0.0 0.00 0.00 0.00 58 1004.0
20260505055917 72 90 0.9 1.7 0.00 0.00 0.00 57 1003.9
20260505054917 72 90 0.9 3.5 0.00 0.00 0.00 57 1004.0
20260505053917 72 112 0.9 5.2 0.00 0.00 0.00 57 1004.1
20260505052917 72 135 1.7 6.1 0.00 0.00 0.00 57 1004.3
20260505051937 72 0.0 6.1 0.00 0.00 0.00 56 1004.3
20260505050957 73 67 0.9 3.5 0.00 0.00 0.00 56 1004.3
20260505040916 73 90 0.9 4.3 0.00 0.00 0.00 54 1004.6
20260505035916 74 0.0 0.0 0.00 0.00 0.00 54 1004.6
20260505034916 74 112 1.7 3.5 0.00 0.00 0.00 54 1004.6
20260505033916 74 0.0 0.9 0.00 0.00 0.00 53 1004.5
20260505032916 74 90 0.9 1.7 0.00 0.00 0.00 53 1004.6
20260505032016 74 135 0.9 1.7 0.00 0.00 0.00 53 1004.5
20260505030916 74 0.0 0.0 0.00 0.00 0.00 53 1004.6
20260505025956 74 0.0 0.9 0.00 0.00 0.00 52 1004.6
20260505024956 74 0.0 0.9 0.00 0.00 0.00 52 1004.6
20260505023916 74 135 0.9 4.3 0.00 0.00 0.00 52 1004.7
20260505023016 74 0.0 0.0 0.00 0.00 0.00 52 1004.5
20260505021916 75 225 0.9 6.1 0.00 0.00 0.00 52 1004.4
20260505021057 75 0 0.9 5.2 0.00 0.00 0.00 51 1004.3
20260505015916 75 135 0.9 4.3 0.00 0.00 0.00 51 1004.3